STARLINK-36324, 68091

Orbit data source: Space-Track

STARLINK-36324, 68091 is a payload satellite owned by SpaceX/Seattle (US) in LEO that was launched on Wed, 04 Mar 2026 UTC via an FALCON 9 launch vehicle from the Air Force Eastern Test Range (AFETR). Payload-class satellites include a variety of spacecraft equipped with specific instruments for various scientific and technological missions. These include communications satellites like Starlink; space stations such as the ISS; scientific satellites like the Hubble; Earth observation satellites from companies like Planet Labs, Umbra, and HawkEye 360; GPS; miniature CubeSats for education and research; and military/defense satellites.

Loading next visibility...
Identifier
68091, 2026-042Y
Orbit
LEO
Country
Flag of USUS
Related business
Manufacturer
SpaceX/Seattle
Mission
Operational Commercial Communications
Bus & Motor
STARLINK V2MO, Unknown motor
Mass
575 kg wet, ~530 kg dry
Launch date (UTC)
2026-03-04 (2 months ago)
Launch vehicle
FALCON 9
Launch site
Air Force Eastern Test Range (AFETR)
Object type
Payload
Rocket body
Debris
Shape & HBR
Box + 2 Pan, 17.7 m
Radar Cross Section
36.964 m²

Expand to show TLE details & history
Last TLE update: 19 hours ago

TLE from 19 hours ago
0 STARLINK-36324
1 68091U 26042Y   26131.59257384  .00007193  00000-0  22979-3 0  9996
2 68091  53.1599 245.9883 0000406 336.8254  23.2730 15.33551076 11946
Epoch: 2026-05-11T14:13Z
TLE epoch observation values (Epoch: 2026-05-11T14:13:18.379Z)
Latitude
-0.00003°
Longitude
163.28262°
Altitude
465.873 km
Speed
7.635 km/s
True Right ascension
16h 23m 57s
True Declination
0° 00' 00"
Sunlit
Object was in full shadow at epoch
Visualization orbit readout
Latitude
Unknown
Longitude
Unknown
Altitude
Unknown
Speed
Unknown
Apparent Right ascension
Unknown
Apparent Declination
Unknown
Sunlit
N/A
Visualization observer readout
Local Sidereal Time
18:01:24
Azimuth
Unknown
Elevation
Unknown
Doppler factor
Unknown
Orbital elements
Apogee altitude
465.762 km
Perigee altitude
465.207 km
Semi-major axis
6,843.621 km
Eccentricity
0.00004
Inclination
53.1599°
RAAN
245.9883°
Arg. of periapsis
336.8254°
True anomaly
23.27484°
Mean anomaly
23.273°
Eccentric anomaly
23.27392°
Mean motion
3.83367 °/min
Orbital period
93.9 mins
BSTAR
0.00022979
Loading maneuver chart data...
Computing Atmospheric mass density...
Loading historical data...
Loading historical data...
Loading historical data...
Loading historical data...
Loading historical data...
Loading historical data...
Loading historical data...

Documentation

Showing up to 5 results
|